Regional Weather Roundup
Issued by NWS Green Bay, WI

Home | Current Version | Previous Version | Graphics & Text | Print | Product List | Glossary Off
Versions: 1 2 3 4 5 6 7 8 9 10 11 12 13 14 15 16 17 18 19 20 21 22 23 24 25 26 27 28 29 30 31 32 33 34 35 36 37 38 39 40 41 42 43 44 45 46 47 48 49 50

000
ASUS43 KGRB 201610
RWRGRB

NORTH-CENTRAL AND NORTHEAST WISCONSIN REGIONAL WEATHER ROUNDUP
NATIONAL WEATHER SERVICE GREEN BAY WI
1100 AM CDT MON APR 20 2015

WIZ005-009-010>012-018-019-201700-
NORTH CENTRAL WISCONSIN

CITY           SKY/WX    TMP DP  RH WIND       PRES   REMARKS
IRONWOOD       CLOUDY    32  30  93 W16       29.28S VSB 1
MANITOWISH WTR LGT SNOW  32  32 100 NW13G22   29.26F VSB 1
ARBOR VITAE    LGT SNOW  37  35  93 NW10G23   29.26S VSB 3/4
EAGLE RIVER    LGT SNOW  35  33  94 NW15      29.22S
LAND O LAKES   LGT SNOW  35  33  93 NW10G25   29.22F
RHINELANDER    LGT SNOW  35  32  88 NW12G21   29.25R FOG
PHILLIPS       LGT SNOW  32  32 100 NW9       29.31S VSB 1
ANTIGO         LGT RAIN  36  34  94 NW14G24   29.23S
TOMAHAWK       LGT SNOW  33  32  94 W9G17     29.28S
MERRILL        LGT RAIN  36  35  96 NW15G21   29.28R
$$

WIZ013-073-201700-
NORTHEAST WISCONSIN

CITY           SKY/WX    TMP DP  RH WIND       PRES   REMARKS
IRON MOUNTAIN  CLOUDY    40  36  86 NW22      29.14F
MARINETTE      CLOUDY    45  39  81 NW7       29.14S
OCONTO         CLOUDY    46  43  89 W9        29.16F
$$

WIZ017-030-035>037-045-201700-
CENTRAL WISCONSIN

CITY           SKY/WX    TMP DP  RH WIND       PRES   REMARKS
MEDFORD        RAIN      34  32  94 NW15G25   29.32R
WAUSAU         LGT RAIN  36  34  92 NW16G29   29.27R
MOSINEE        LGT RAIN  36  36 100 NW18G25   29.30R
MARSHFIELD     LGT RAIN  39  35  86 NW16G26   29.33R
WISC RAPIDS    LGT RAIN  38  34  85 NW14G25   29.34R
STEVENS POINT  RAIN      36  34  93 W13G21    29.30R
WAUPACA        DRIZZLE   40  36  86 W13G22    29.28R
SHAWANO        CLOUDY    44  39  83 W14G22    29.21R
CLINTONVILLE   DRIZZLE   39  36  87 NW15G26   29.24R
$$

WIZ038-039-048-051-201700-
FOX VALLEY

CITY           SKY/WX    TMP DP  RH WIND       PRES   REMARKS
NWS GREEN BAY  LGT RAIN  48  44  86 W17       29.19S
APPLETON       LGT RAIN  43  41  93 W18G30    29.23R
OSHKOSH        LGT RAIN  40  36  86 W20G32    29.26R
FOND DU LAC    LGT RAIN  41  36  82 W24G31    29.27R
$$

WIZ022-050-052-201700-
EAST CENTRAL WISCONSIN

CITY           SKY/WX    TMP DP  RH WIND       PRES   REMARKS
STURGEON BAY   CLOUDY    43  39  87 W13       29.17S
MANITOWOC      LGT RAIN  46  42  86 NW15G21   29.20
SHEBOYGAN      LGT RAIN  46  41  82 W18G24    29.21R
$$

LMZ563-521-522-541>543-201700-
LAKESHORE

STATION/POSITION TIME  TEMP    WIND        PRES    VSBY  WAVE
                       AIR SEA DIR/SP/G                  HT/PER
                 (UTC) (F)     (DEG/KT/KT) (MB)    (MI)  (FT/S)
SHEBOYGAN LKSHOR 1600   46     290/ 13/ 16  989.8R
KEWAUNEE LKSHORE 1600   45     290/ 11/ 18  987.1R
NORTHPORT PIER   1600   41     300/ 11/ 15  986.5S
SISTER BAY LKSHO 1500   40     320/ 12/ 13   N/A
CHAMBERS ISLAND  1600   42     260/  3/  8  987.1S
MENOMINEE LKSHOR 1600   45     290/ 10/ 16  987.8S
$$



USA.gov is the U.S. government's official web portal to all federal, state and local government web resources and services.